Regional Weather Roundup
Issued by NWS

Home | Current Version | Previous Version | Text Only | Print | Product List | Glossary Off
Versions: 1 2 3 4 5 6 7 8 9 10 11 12 13 14 15 16 17 18 19 20 21 22 23 24 25 26 27 28 29 30 31 32 33 34 35 36 37 38 39 40 41 42 43 44 45 46 47 48 49 50

000
ASUS43 KLSX 022359
RWRMO

WEATHER SUMMARY FOR MISSOURI
NATIONAL WEATHER SERVICE SPRINGFIELD MO
700 PM CDT TUE SEP 02 2014

NOTE: "FAIR" INDICATES FEW OR NO CLOUDS BELOW 12,000 FEET WITH NO
       SIGNIFICANT WEATHER AND/OR OBSTRUCTIONS TO VISIBILITY.
       CURRENT SKY AND/OR WEATHER CONDITIONS ARE NOT AVAILABLE FOR
       CHILLICOTHE AND FARMINGTON.

MOZ001>031-035>038-043-044-053-054-030100-
...NORTHERN AND WESTERN MISSOURI...

CITY           SKY/WX    TMP DP  RH WIND       PRES   REMARKS
KANSAS CTY INT PTCLDY    78  68  71 SW5       29.94F
6HR MIN TEMP:  78; 6HR MAX TEMP:  82;

KANSAS C DTWN  CLEAR     82  66  58 VRB3      29.92F
6HR MIN TEMP:  80; 6HR MAX TEMP:  84;

LEE`S SUMMIT   CLEAR     79  70  74 CALM      29.95S
6HR MIN TEMP:  77; 6HR MAX TEMP:  82;

ST JOSEPH      CLEAR     81  66  60 NE5       29.93S
6HR MIN TEMP:  80; 6HR MAX TEMP:  85;

KIRKSVILLE     CLEAR     79  65  62 CALM      29.95S
6HR MIN TEMP:  78; 6HR MAX TEMP:  84;


$$
MOZ066>068-077>081-088>096-101>105-030100-
...SOUTHWEST MISSOURI...

CITY           SKY/WX    TMP DP  RH WIND       PRES   REMARKS
SPRINGFIELD    PTCLDY    78  65  63 N7        29.96F
6HR MIN TEMP:  70; 6HR MAX TEMP:  82;

JOPLIN         CLEAR     79  67  66 W3        29.96S
6HR MIN TEMP:  70; 6HR MAX TEMP:  81;


$$
MOZ032>034-039>042-045>050-055>058-069>072-030100-
...CENTRAL MISSOURI...

CITY           SKY/WX    TMP DP  RH WIND       PRES   REMARKS
COLUMBIA       CLEAR     80  69  69 W3        29.95F
6HR MIN TEMP:  78; 6HR MAX TEMP:  82;

JEFFERSON CITY PTCLDY    81  68  64 CALM      29.94S
6HR MIN TEMP:  76; 6HR MAX TEMP:  82;

ROLLA          HAZE      76  68  76 W3        29.97R VSB 1/2
6HR MIN TEMP:  71; 6HR MAX TEMP:  78;

SEDALIA        PTCLDY    79  70  74 SW5       29.96S
6HR MIN TEMP:  74; 6HR MAX TEMP:  81;

OSAGE BEACH    MOCLDY    77  66  69 CALM      29.96F

$$
MOZ051-052-059>065-030100-
...EAST CENTRAL MISSOURI...

CITY           SKY/WX    TMP DP  RH WIND       PRES   REMARKS
ST LOUIS INTL  MOCLDY    80  67  64 NW3       29.95R
6HR MIN TEMP:  79; 6HR MAX TEMP:  84;

SPIRIT OF STL  PTCLDY    79  68  69 CALM      29.93S
6HR MIN TEMP:  76; 6HR MAX TEMP:  82;

ST CHARLES     PTCLDY    80  67  64 CALM      29.93R
6HR MIN TEMP:  78; 6HR MAX TEMP:  82;


$$
MOZ072>076-082>087-097>100-106>115-030100-
...SOUTH CENTRAL AND SOUTHEAST MISSOURI...

CITY           SKY/WX    TMP DP  RH WIND       PRES   REMARKS
CAPE GIRARDEAU MOCLDY    79  70  74 SE3       29.95R
6HR MIN TEMP:  79; 6HR MAX TEMP:  83;

FARMINGTON     CLEAR     75  66  73 CALM      30.00R
6HR MIN TEMP:  75; 6HR MAX TEMP:  79;

POPLAR BLUFF   PTCLDY    81  64  56 CALM      29.95R
6HR MIN TEMP:  80; 6HR MAX TEMP:  84;

WEST PLAINS    PTCLDY    76  65  68 NE5       30.01R
6HR MIN TEMP:  70; 6HR MAX TEMP:  79;


$$


USA.gov is the U.S. government's official web portal to all federal, state and local government web resources and services.